• In Belarus
  • List of Countries
  • For 7 days
  • Water Temperature
  • Satellite Maps
  • Weather Map
  • Weather Widgets
  • user-avatar
    Login

    Hourly Weather Choybalsan

    Today, 23 March, Saturday

    Time Temperature Precipitation Wind Pressure Humidity
    00:00 -7°C° 0 mm 3 mps 699 mmHg 37%
    01:00 -7°C° 0 mm 3 mps 698 mmHg 38%
    02:00 -9°C° 0 mm 4 mps 698 mmHg 38%
    03:00 -9°C° 0 mm 4 mps 698 mmHg 38%
    04:00 -9°C° 0 mm 4 mps 697 mmHg 38%
    05:00 -9°C° 0 mm 4 mps 697 mmHg 38%
    06:00 -10°C° 0 mm 5 mps 696 mmHg 35%
    07:00 -9°C° 0 mm 6 mps 696 mmHg 33%
    08:00 -8°C° 0 mm 7 mps 695 mmHg 28%
    09:00 -6°C° 0 mm 7 mps 695 mmHg 26%
    10:00 -3°C° 0 mm 7 mps 694 mmHg 24%
    11:00 -1°C° 0 mm 7 mps 694 mmHg 22%
    12:00 0°C° 0 mm 7 mps 693 mmHg 21%
    13:00 +3°C° 0 mm 7 mps 692 mmHg 21%
    14:00 +4°C° 0 mm 8 mps 691 mmHg 20%
    15:00 +4°C° 0 mm 7 mps 690 mmHg 20%
    16:00 +4°C° 0 mm 6 mps 689 mmHg 21%
    17:00 +5°C° 0 mm 5 mps 688 mmHg 22%
    18:00 +3°C° 0 mm 5 mps 688 mmHg 25%
    19:00 +1°C° 0 mm 5 mps 688 mmHg 29%
    20:00 -1°C° 0 mm 5 mps 688 mmHg 32%
    21:00 -1°C° 0 mm 5 mps 688 mmHg 36%
    22:00 -1°C° 0 mm 5 mps 688 mmHg 39%
    23:00 -2°C° 0 mm 5 mps 688 mmHg 43%

    Tomorrow, 24 March, Sunday

    Time Temperature Precipitation Wind Pressure Humidity
    00:00 -2°C° 0 mm 5 mps 688 mmHg 45%
    01:00 -2°C° 0 mm 5 mps 688 mmHg 48%
    02:00 -2°C° 0 mm 5 mps 688 mmHg 50%
    03:00 -4°C° 0 mm 5 mps 688 mmHg 52%
    04:00 -4°C° 0 mm 5 mps 688 mmHg 53%
    05:00 -5°C° 0 mm 5 mps 688 mmHg 55%
    06:00 -4°C° 0 mm 6 mps 688 mmHg 52%
    07:00 -4°C° 0 mm 7 mps 688 mmHg 50%
    08:00 -4°C° 0 mm 8 mps 688 mmHg 47%
    09:00 -2°C° 0 mm 8 mps 688 mmHg 43%
    10:00 -1°C° 0 mm 8 mps 688 mmHg 38%
    11:00 0°C° 0 mm 9 mps 688 mmHg 34%
    12:00 +1°C° 0 mm 9 mps 688 mmHg 31%
    13:00 +1°C° 0 mm 9 mps 688 mmHg 29%
    14:00 +2°C° 0 mm 9 mps 687 mmHg 27%
    15:00 +2°C° 0 mm 8 mps 687 mmHg 26%
    16:00 +1°C° 0 mm 8 mps 687 mmHg 25%
    17:00 +1°C° 0 mm 8 mps 687 mmHg 24%
    18:00 +1°C° 0 mm 6 mps 687 mmHg 29%
    19:00 -1°C° 0 mm 5 mps 688 mmHg 33%
    20:00 -2°C° 0 mm 4 mps 688 mmHg 38%
    21:00 -3°C° 0 mm 4 mps 688 mmHg 40%
    22:00 -3°C° 0 mm 4 mps 689 mmHg 43%
    23:00 -4°C° 0 mm 3 mps 689 mmHg 46%

    Day after tomorrow, 25 March, Monday

    Time Temperature Precipitation Wind Pressure Humidity
    00:00 -4°C° 0 mm 3 mps 689 mmHg 48%
    01:00 -5°C° 0 mm 3 mps 689 mmHg 49%
    02:00 -5°C° 0 mm 3 mps 689 mmHg 51%
    03:00 -5°C° 0 mm 3 mps 690 mmHg 53%
    04:00 -6°C° 0 mm 3 mps 690 mmHg 54%
    05:00 -6°C° 0 mm 3 mps 690 mmHg 56%
    06:00 -6°C° 0 mm 3 mps 690 mmHg 52%
    07:00 -5°C° 0 mm 3 mps 691 mmHg 49%
    08:00 -5°C° 0 mm 4 mps 691 mmHg 46%
    09:00 -4°C° 0 mm 4 mps 691 mmHg 42%
    10:00 -2°C° 0 mm 3 mps 691 mmHg 37%
    11:00 -1°C° 0 mm 3 mps 692 mmHg 33%
    12:00 0°C° 0 mm 3 mps 691 mmHg 31%
    13:00 +2°C° 0 mm 2 mps 691 mmHg 30%
    14:00 +3°C° 0 mm 2 mps 691 mmHg 29%
    15:00 +3°C° 0 mm 2 mps 690 mmHg 30%
    16:00 +4°C° 0 mm 1 mps 690 mmHg 30%
    17:00 +3°C° 0 mm 0 mps 689 mmHg 31%
    18:00 +2°C° 0 mm 2 mps 689 mmHg 33%
    19:00 0°C° 0 mm 3 mps 689 mmHg 35%
    20:00 -2°C° 0 mm 5 mps 689 mmHg 37%
    21:00 -2°C° 0 mm 5 mps 689 mmHg 38%
    22:00 -4°C° 0 mm 5 mps 690 mmHg 40%
    23:00 -4°C° 0 mm 5 mps 690 mmHg 41%

    26 March, Tuesday

    Time Temperature Precipitation Wind Pressure Humidity
    00:00 -5°C° 0 mm 5 mps 689 mmHg 43%
    01:00 -5°C° 0 mm 5 mps 689 mmHg 46%
    02:00 -6°C° 0 mm 5 mps 689 mmHg 48%
    03:00 -6°C° 0 mm 5 mps 689 mmHg 54%
    04:00 -7°C° 0 mm 4 mps 689 mmHg 59%
    05:00 -6°C° 0 mm 3 mps 688 mmHg 65%
    06:00 -5°C° 0 mm 2 mps 689 mmHg 65%
    07:00 -4°C° 0 mm 2 mps 689 mmHg 65%
    08:00 -2°C° 0 mm 1 mps 690 mmHg 66%
    09:00 -3°C° 0.1 mm 2 mps 690 mmHg 65%
    10:00 -2°C° 0.1 mm 3 mps 690 mmHg 64%
    11:00 -2°C° 0.1 mm 4 mps 691 mmHg 63%
    12:00 -2°C° 0.1 mm 5 mps 691 mmHg 58%
    13:00 -1°C° 0.1 mm 5 mps 692 mmHg 53%
    14:00 -1°C° 0.1 mm 6 mps 692 mmHg 49%
    15:00 -1°C° 0.1 mm 6 mps 692 mmHg 48%
    16:00 -2°C° 0.1 mm 6 mps 693 mmHg 46%
    17:00 -2°C° 0.1 mm 6 mps 693 mmHg 45%
    18:00 -2°C° 0 mm 5 mps 694 mmHg 51%
    19:00 -5°C° 0 mm 5 mps 694 mmHg 57%
    20:00 -5°C° 0 mm 4 mps 695 mmHg 63%
    21:00 -5°C° 0 mm 3 mps 695 mmHg 64%
    22:00 -6°C° 0 mm 3 mps 696 mmHg 65%
    23:00 -6°C° 0 mm 2 mps 696 mmHg 66%

    27 March, Wednesday

    Time Temperature Precipitation Wind Pressure Humidity
    00:00 -6°C° 0 mm 2 mps 696 mmHg 66%
    01:00 -6°C° 0 mm 2 mps 696 mmHg 66%
    02:00 -6°C° 0 mm 2 mps 697 mmHg 66%
    03:00 -6°C° 0.1 mm 2 mps 697 mmHg 69%
    04:00 -6°C° 0.1 mm 2 mps 697 mmHg 71%
    05:00 -7°C° 0.1 mm 2 mps 697 mmHg 74%
    06:00 -8°C° 0.1 mm 3 mps 698 mmHg 73%
    07:00 -9°C° 0.1 mm 4 mps 698 mmHg 71%
    08:00 -9°C° 0.1 mm 4 mps 698 mmHg 70%
    09:00 -8°C° 0 mm 5 mps 699 mmHg 61%
    10:00 -7°C° 0 mm 5 mps 699 mmHg 52%
    11:00 -8°C° 0 mm 6 mps 699 mmHg 43%
    12:00 -6°C° 0 mm 6 mps 699 mmHg 40%
    13:00 -6°C° 0 mm 5 mps 699 mmHg 38%
    14:00 -5°C° 0 mm 5 mps 698 mmHg 35%
    15:00 -5°C° 0 mm 5 mps 698 mmHg 34%
    16:00 -5°C° 0 mm 5 mps 698 mmHg 33%
    17:00 -4°C° 0 mm 4 mps 697 mmHg 33%
    18:00 -5°C° 0 mm 3 mps 697 mmHg 35%
    19:00 -6°C° 0 mm 3 mps 697 mmHg 37%
    20:00 -6°C° 0 mm 2 mps 697 mmHg 40%
    21:00 -6°C° 0 mm 2 mps 697 mmHg 41%
    22:00 -7°C° 0 mm 3 mps 696 mmHg 42%
    23:00 -8°C° 0 mm 4 mps 696 mmHg 44%

    28 March, Thursday

    Time Temperature Precipitation Wind Pressure Humidity
    00:00 -8°C° 0 mm 4 mps 696 mmHg 48%
    01:00 -9°C° 0 mm 4 mps 696 mmHg 53%
    02:00 -9°C° 0 mm 4 mps 696 mmHg 57%
    03:00 -9°C° 0 mm 4 mps 695 mmHg 59%
    04:00 -9°C° 0 mm 4 mps 695 mmHg 60%
    05:00 -10°C° 0 mm 4 mps 695 mmHg 62%
    06:00 -10°C° 0 mm 5 mps 695 mmHg 59%
    07:00 -8°C° 0 mm 5 mps 695 mmHg 55%
    08:00 -8°C° 0 mm 5 mps 695 mmHg 52%
    09:00 -6°C° 0 mm 5 mps 695 mmHg 45%
    10:00 -5°C° 0 mm 5 mps 694 mmHg 38%
    11:00 -3°C° 0 mm 4 mps 694 mmHg 32%
    12:00 -2°C° 0 mm 4 mps 693 mmHg 28%
    13:00 -1°C° 0 mm 4 mps 692 mmHg 25%
    14:00 0°C° 0 mm 4 mps 692 mmHg 22%
    15:00 +1°C° 0 mm 3 mps 691 mmHg 21%
    16:00 +2°C° 0 mm 3 mps 690 mmHg 21%
    17:00 +3°C° 0 mm 2 mps 690 mmHg 21%
    18:00 +1°C° 0 mm 2 mps 689 mmHg 24%
    19:00 -1°C° 0 mm 2 mps 689 mmHg 26%
    20:00 -2°C° 0 mm 2 mps 688 mmHg 29%
    21:00 -4°C° 0 mm 3 mps 688 mmHg 31%
    22:00 -4°C° 0 mm 3 mps 687 mmHg 32%
    23:00 -4°C° 0 mm 3 mps 687 mmHg 33%
    Show more